Location: *
(51.2167°N, 10.0667°E)
Time: 00:16:38
(UTC+00:00)

Cosmos 1190 Rocket - Pass Details

Date: 12 December 2019
Orbit: 756 x 780 km, 74.1° (Epoch: 27 January)

Event Time Altitude Azimuth Distance (km) Brightness Sun altitude
Rises 17:26:52 0° 193° (SSW) 3,206 7.6 -19.8°
Reaches altitude 10° 17:29:14 10° 190° (S) 2,283 6.7 -20.2°
Maximum altitude 17:34:21 65° 110° (ESE) 835 3.9 -21.0°
Enters shadow 17:35:57 42° 47° (NE) 1,071 4.3 -21.2°
